CALSPHERE 4A

Last updated on Mon Sep 07 2026 00:03:41 GMT+0000 (Coordinated Universal Time)

1 01520U 65065H 26249.61901828 .00000062 00000+0 10177-3 0 9994 2 01520 89.8919 121.6716 0068087 233.2057 196.4680 13.36289938973587
UTC large
Height (km)
Speed (km/s)
/
Latitude / Longitude
Inclination (degrees)
Orbital Period (minutes)
Azimuth
Elevation
Range (km)
Doppler Factor

Next 0 passes for location: London (51.5072 / 0.1276)

No passes found over London.
CALSPHERE 4A